Location: Cactus School
(34.5700°N, 118.0931°W)
Time: 18:57:56
(UTC-08:00)

N. Korean satellite - Pass Details

Date: 12 November 2017
Orbit: 460 x 514 km, 97.2° (Epoch: 20 November)

Event Time Altitude Azimuth Distance (km) Brightness Sun altitude
Rises 18:06:15 0° 174° (S) 2,468 10.2 -16.0°
Reaches altitude 10° 18:08:17 10° 177° (S) 1,599 9.3 -16.4°
Maximum altitude 18:11:41 64° 259° (W) 517 6.9 -17.1°
Drops below altitude 10° 18:15:08 10° 342° (NNW) 1,623 9.3 -17.8°
Sets 18:17:13 0° 346° (NNW) 2,510 10.3 -18.2°
